Find Starlink 5935

NORAD ID: 56453 Int'l Des: 2023-064 Owner: SPXS Country: US Constellation: starlink operational
LEOCIRCULAR

Live Position

Loading 3D Globe...

About Starlink 5935

Description loading...

Upcoming Passes

Passes for default location (London). Set your location on the main map for personalized predictions.

Altitude History

Loading altitude history...

Two-Line Element Set

1 56453U 23064F 26125.77323203 .00000470 00000-0 47123-4 0 9993
2 56453 69.9996 0.6512 0002355 270.0101 90.0788 14.98342762163797
Epoch: May 5, 2026 • Age: 20 hours

Current Status

Altitude 584.9 km
Velocity 7.57 km/s
Sub-Earth Point 68.42°N, 11.83°W
Launch Date May 10, 2023
Age 2.9 years
Type internet

Technical Details

Classification Payload
Mass 305.00 kg
Dry Mass 290.00 kg
Total Mass 305.00 kg
Length 0.20 m
Diameter 2.80 m
Span 9.00 m
Shape Box + pan
Manufacturer SPXS
Bus Type Starlink
Phase Status In Orbit
Owner/State SPXS/US

Most Searched